Location: Kosice
(0.0000°N, 21.2500°E)
Time: 05:44:55
(UTC+01:00)

Feng Yun 1-1 Rocket - Pass Details

Date: 24 January 2021
Orbit: 830 x 933 km, 99.2° (Epoch: 04 March)

Event Time Altitude Azimuth Distance (km) Brightness Sun altitude
Rises 18:25:57 0° 171° (S) 3,375 7.5 -9.2°
Reaches altitude 10° 18:28:19 10° 173° (S) 2,436 6.8 -9.7°
Maximum altitude 18:33:40 72° 257° (WSW) 870 4.5 -11.0°
Drops below altitude 10° 18:39:02 10° 341° (NNW) 2,438 6.6 -12.2°
Sets 18:41:24 0° 343° (NNW) 3,379 7.3 -12.8°
